Погода в Поцца-ди-Фасса

Италия     46°25′36″N   11°41′05″E
темп.,
°C
ветер,
м/с
пор.,
м/с
влажн.,
%
обл.,
%
осадки,
мм/ч
давл.,
гПа
погр.,
м
14 апреля, ср
ср1423:00−14св219611 0.0 103216
02:00−15св219617 0.0 103315
05:00−16всв21955 0.0 103314
08:00−10св12915 0.0 102956
11:00−5ссв11765 0.0 1025753
14:00−2ссз117573 0.1 10221261
17:00−2ссз117296 0.4 10201083
20:00−8с0197100 1.1 102410
15 апреля, чт
чт1523:00−7с1298100 1.3 102467
02:00−8св1297100 3.9 102590
05:00−8ссв1298100 2.6 102581
08:00−8ссв1296100 4.1 1025255
11:00−5с2293100 1.3 1023592
14:00−4сз2291100 4.0 1021692
17:00−3зсз128188 3.1 1020733
20:00−9вюв119689 4.1 102510
16 апреля, пт
пт1623:00−10вюв119888 0.1 102712
02:00−13вюв219839 0.1 102812
05:00−13вюв119732 0.0 102812
08:00−7в11925 0.0 102340
11:00−2ссв018599 0.0 1020908
14:00−1юв118699 0.5 1018885
17:00−1юв1185100 1.1 1017619
20:00−6вюв1196100 1.6 102110
17 апреля, сб
сб1723:00−9вюв1196100 0.0 102414
02:00−9в1196100 0.0 102312
05:00−10в1196100 0.0 102312
08:00−6св129562 0.0 101865
11:00−1с2285100 0.0 1015564
14:000св2284100 0.0 1013989
17:00+1ссв2287100 0.1 1012871
20:00−4св2196100 0.2 101630
18 апреля, вс
вс1823:00−5св1195100 0.0 101929
02:00−5св2296100 0.0 101845
05:00−6св2295100 0.0 101846
08:00−4ссв2392100 0.0 1017138
11:00−1с2286100 0.1 1016652
14:00+1ссв1283100 0.5 1013904
17:000ссв2284100 0.5 1014683
20:00−3св2196100 0.8 101822